Le nostre stazioni meteo in Italia

Pubblicità
Il mio iltempo24.it
S. Maria Di Leuca, Italia (16360): Temperatura & dewpoint: 12.03.2019 20:00:00 - 18.03.2019 20:00:00 (CET)S. Maria Di Leuca, Italia (16360): velocità del vento: 12.03.2019 20:00:00 - 18.03.2019 20:00:00 (CET)S. Maria Di Leuca, Italia (16360): direzione del vento: 12.03.2019 20:00:00 - 18.03.2019 20:00:00 (CET)S. Maria Di Leuca, Italia (16360): reduced air pressure: 12.03.2019 20:00:00 - 18.03.2019 20:00:00 (CET)S. Maria Di Leuca, Italia (16360): visibility: 12.03.2019 20:00:00 - 18.03.2019 20:00:00 (CET)S. Maria Di Leuca, Italia (16360): ore di luce: 12.03.2019 20:00:00 - 18.03.2019 20:00:00 (CET)
Data & Tempo tt [°C] td [°C] ff [km/h] ff [kn] dd ppp [hPa] vv [km] sd [min]
18.03.2019 20:00:00 - - - - - - - -
18.03.2019 19:00:00 13,2 10,7 16 9 S 1015,4 10 0
18.03.2019 18:00:00 13,4 10,9 18 10 SSE 1015,0 10 12
18.03.2019 17:00:00 14,0 11,7 18 10 S 1014,8 10 60
18.03.2019 16:00:00 14,2 11,9 18 10 SSE 1014,8 10 48
18.03.2019 15:00:00 14,2 11,9 18 10 SSE 1015,0 10 48
18.03.2019 14:00:00 14,4 11,9 18 10 SSE 1015,1 10 36
18.03.2019 13:00:00 14,4 12,1 18 10 S 1015,6 10 48
18.03.2019 12:00:00 14,0 11,9 16 9 S 1015,8 10 48
18.03.2019 11:00:00 14,0 11,9 16 9 S 1015,7 10 12
18.03.2019 10:00:00 13,4 10,9 18 10 S 1015,6 10 0
18.03.2019 09:00:00 13,4 10,8 21 11 S 1015,2 10 0
18.03.2019 08:00:00 13,2 10,7 18 10 S 1015,2 10 0
18.03.2019 07:00:00 13,4 10,9 18 10 S 1015,2 10 0
18.03.2019 06:00:00 13,0 10,5 15 8 SO 1014,5 10 -
18.03.2019 05:00:00 12,8 10,4 16 9 SSE 1014,5 10 -
18.03.2019 04:00:00 12,8 10,2 15 8 S 1015,3 10 -
18.03.2019 03:00:00 12,8 10,2 16 9 ESE 1015,3 10 -
18.03.2019 02:00:00 12,8 10,5 16 9 S 1015,3 10 -
18.03.2019 01:00:00 12,8 10,5 16 9 SSE 1015,3 10 -
18.03.2019 00:00:00 12,8 10,7 18 10 SSE 1016,0 10 -
17.03.2019 23:00:00 12,8 10,2 16 9 S 1016,3 10 -
17.03.2019 22:00:00 12,8 10,5 15 8 SSE 1016,3 10 -
17.03.2019 21:00:00 13,0 10,4 18 10 SSE 1016,3 10 -
17.03.2019 20:00:00 13,0 10,5 15 8 ESE 1016,7 10 -
17.03.2019 19:00:00 13,0 10,5 15 8 S 1016,8 10 -
17.03.2019 18:00:00 13,4 10,9 18 10 S 1017,5 10 12
17.03.2019 17:00:00 14,0 11,2 18 10 S 1017,5 10 0
17.03.2019 16:00:00 14,0 11,2 18 10 S 1017,5 10 12
17.03.2019 15:00:00 14,0 11,2 18 10 S 1017,6 10 36
17.03.2019 14:00:00 14,0 11,2 16 9 S 1017,7 10 30
17.03.2019 13:00:00 13,6 10,8 16 9 S 1018,8 10 0
17.03.2019 12:00:00 13,6 10,8 16 9 S 1019,0 10 0
17.03.2019 11:00:00 13,6 10,8 16 9 SSE 1018,8 10 0
17.03.2019 10:00:00 13,2 10,4 16 9 S 1018,2 10 0
17.03.2019 09:00:00 13,2 10,4 15 8 SE 1017,8 10 0
17.03.2019 08:00:00 13,0 10,2 13 7 ESE 1017,6 10 0
17.03.2019 07:00:00 13,0 10,2 15 8 S 1017,5 10 0
17.03.2019 06:00:00 12,8 10,0 13 7 NNO 1017,3 10 0
17.03.2019 05:00:00 12,8 10,0 16 9 SSE 1017,3 10 -
17.03.2019 04:00:00 12,8 10,0 16 9 SSE 1017,5 10 -
17.03.2019 03:00:00 12,8 10,2 15 8 SSE 1017,5 10 -
17.03.2019 02:00:00 12,8 10,2 13 7 SSE 1018,0 10 -
17.03.2019 01:00:00 12,8 10,0 15 8 SSE 1018,0 10 -
17.03.2019 00:00:00 12,8 10,2 15 8 SSE 1018,3 12 -
16.03.2019 23:00:00 12,8 10,9 13 7 SSE 1018,3 10 -
16.03.2019 22:00:00 12,8 10,0 11 6 S 1017,9 12 -
16.03.2019 21:00:00 13,0 10,4 13 7 SSE 1017,7 10 -
16.03.2019 20:00:00 13,2 11,4 13 7 S 1017,7 10 -
16.03.2019 19:00:00 13,2 10,9 13 7 S 1017,7 15 -
16.03.2019 18:00:00 13,8 11,9 9 5 SSE 1017,6 15 12
16.03.2019 17:00:00 14,4 12,4 13 7 SE 1017,4 15 60
16.03.2019 16:00:00 15,0 12,7 15 8 SSE 1017,4 20 60
16.03.2019 15:00:00 15,6 12,0 15 8 SSE 1017,4 20 60
16.03.2019 14:00:00 16,0 12,2 13 7 SSE 1017,5 20 60
16.03.2019 13:00:00 15,8 12,0 9 5 SSE 1017,7 20 60
16.03.2019 12:00:00 15,8 11,8 8 4 NE 1018,2 20 60
16.03.2019 11:00:00 15,0 10,4 8 4 SO 1018,2 20 60
16.03.2019 10:00:00 14,4 10,0 8 4 SO 1017,6 10 60
16.03.2019 09:00:00 13,0 10,4 9 5 OSO 1017,3 20 60
16.03.2019 08:00:00 12,4 10,3 5 3 SO 1017,2 10 60
16.03.2019 07:00:00 12,0 10,1 9 5 O 1016,5 10 0
16.03.2019 06:00:00 12,0 10,4 8 4 O 1016,3 10 -
16.03.2019 05:00:00 12,0 10,6 8 4 O 1015,9 12 -
16.03.2019 04:00:00 12,0 9,0 9 5 OSO 1015,9 10 -
16.03.2019 03:00:00 11,8 7,7 8 4 OSO 1015,9 12 -
16.03.2019 02:00:00 11,6 7,7 5 3 SO 1016,1 12 -
16.03.2019 01:00:00 11,4 8,3 4 2 OSO 1016,1 10 -
16.03.2019 00:00:00 11,4 8,1 5 3 O 1016,1 12 -
15.03.2019 23:00:00 11,8 8,1 5 3 O 1016,0 10 -
15.03.2019 22:00:00 11,6 8,6 5 3 NNE 1015,6 10 -
15.03.2019 21:00:00 11,6 8,1 5 3 NE 1015,1 10 -
15.03.2019 20:00:00 12,0 6,5 5 3 N 1014,8 10 -
15.03.2019 19:00:00 11,4 7,1 4 2 E 1013,5 10 -
15.03.2019 18:00:00 12,0 7,3 5 3 SE 1013,3 15 18
15.03.2019 17:00:00 12,0 8,3 5 3 SSE 1012,5 10 60
15.03.2019 16:00:00 12,2 6,9 5 3 N 1012,1 10 60
15.03.2019 15:00:00 12,6 7,3 8 4 ESE 1012,1 15 60
15.03.2019 14:00:00 12,6 6,9 9 5 ONO 1012,1 15 60
15.03.2019 13:00:00 12,2 7,3 18 10 O 1012,1 10 60
15.03.2019 12:00:00 12,2 7,9 22 12 O 1012,1 10 60
15.03.2019 11:00:00 11,8 6,5 18 10 O 1011,7 10 60
15.03.2019 10:00:00 11,6 -0,9 8 4 NNO 1011,1 10 60
15.03.2019 09:00:00 11,0 4,9 11 6 ONO 1011,1 10 60
15.03.2019 08:00:00 10,6 6,7 9 5 ONO 1011,1 10 60
15.03.2019 07:00:00 8,8 5,5 13 7 NO 1010,8 10 6
15.03.2019 06:00:00 6,8 5,3 15 8 NNO 1010,2 10 -
15.03.2019 05:00:00 7,2 5,8 13 7 NO 1010,2 10 -
15.03.2019 04:00:00 7,2 5,7 16 9 NO 1009,9 10 -
15.03.2019 03:00:00 7,0 5,3 15 8 NNO 1010,2 10 -
15.03.2019 02:00:00 7,2 4,9 13 7 NO 1010,5 10 -
15.03.2019 01:00:00 7,4 5,1 15 8 NNO 1010,5 10 -
15.03.2019 00:00:00 7,8 5,1 21 11 NO 1010,3 10 -
14.03.2019 23:00:00 7,8 5,1 21 11 NO 1009,9 10 -
14.03.2019 22:00:00 8,0 5,5 16 9 NNO 1009,7 10 -
14.03.2019 21:00:00 8,0 5,3 15 8 NNO 1009,4 10 -
14.03.2019 20:00:00 8,2 5,8 13 7 NO 1009,3 10 -
14.03.2019 19:00:00 8,2 5,5 15 8 NO 1008,4 10 0
14.03.2019 18:00:00 8,8 6,4 16 9 N 1007,5 10 0
14.03.2019 17:00:00 10,0 7,9 9 5 ONO 1007,0 10 0
14.03.2019 16:00:00 10,8 8,4 13 7 NNO 1006,9 10 24
14.03.2019 15:00:00 10,6 8,0 15 8 ONO 1007,1 10 12
14.03.2019 14:00:00 9,8 7,1 13 7 NO 1007,5 10 0
14.03.2019 13:00:00 10,0 7,4 11 6 NO 1007,7 10 0
14.03.2019 12:00:00 9,6 6,9 11 6 O 1008,6 10 0
14.03.2019 11:00:00 9,8 8,1 13 7 O 1008,8 10 0
14.03.2019 10:00:00 12,0 10,4 15 8 OSO 1009,0 10 0
14.03.2019 09:00:00 12,2 10,3 13 7 SO 1009,2 10 24
14.03.2019 08:00:00 12,0 9,6 11 6 S 1009,3 10 0
14.03.2019 07:00:00 9,2 7,2 5 3 SO 1009,8 10 0
14.03.2019 06:00:00 8,4 6,4 8 4 SO 1010,1 10 0
14.03.2019 05:00:00 8,4 5,5 8 4 SO 1010,8 10 -
14.03.2019 04:00:00 8,4 6,0 13 7 SSO 1011,6 10 -
14.03.2019 03:00:00 8,6 5,4 15 8 SSO 1012,9 10 -
14.03.2019 02:00:00 8,6 6,7 13 7 SO 1013,9 10 -
14.03.2019 01:00:00 10,0 7,9 11 6 SO 1014,2 10 -
14.03.2019 00:00:00 10,0 7,6 15 8 SO 1014,2 10 -
13.03.2019 23:00:00 11,0 8,7 11 6 SO 1014,1 10 -
13.03.2019 22:00:00 10,2 7,8 13 7 SO 1014,2 10 -
13.03.2019 21:00:00 10,2 6,2 8 4 NNO 1014,2 10 -
13.03.2019 20:00:00 10,2 6,5 4 2 SSE 1014,4 10 -
13.03.2019 19:00:00 10,2 6,5 8 4 ENE 1014,0 10 -
13.03.2019 18:00:00 11,0 6,4 8 4 NE 1013,9 10 6
13.03.2019 17:00:00 12,2 2,4 9 5 NNE 1013,9 10 48
13.03.2019 16:00:00 12,4 1,7 8 4 N 1013,9 15 60
13.03.2019 15:00:00 12,4 2,0 11 6 N 1014,0 10 60
13.03.2019 14:00:00 12,2 1,5 13 7 NNO 1014,3 10 60
13.03.2019 13:00:00 12,0 1,9 13 7 N 1014,3 10 60
13.03.2019 12:00:00 11,8 2,5 15 8 N 1014,6 10 60
13.03.2019 11:00:00 11,4 2,9 22 12 N 1014,6 10 60
13.03.2019 10:00:00 10,4 3,0 24 13 NNO 1014,8 10 60
13.03.2019 09:00:00 9,0 3,0 18 10 NNO 1015,0 10 60
13.03.2019 08:00:00 8,8 3,8 18 10 NO 1015,0 10 60
13.03.2019 07:00:00 7,0 2,9 16 9 NNO 1015,6 10 0
13.03.2019 06:00:00 7,0 2,5 18 10 NNO 1014,1 10 -
13.03.2019 05:00:00 7,8 4,2 21 11 NO 1014,1 10 -
13.03.2019 04:00:00 7,8 3,3 18 10 NO 1013,6 10 -
13.03.2019 03:00:00 7,8 1,6 22 12 NO 1011,1 10 -
13.03.2019 02:00:00 7,8 1,9 28 15 N 1012,9 10 -
13.03.2019 01:00:00 7,8 1,4 26 14 N 1012,4 10 -
13.03.2019 00:00:00 7,8 1,0 22 12 N 1012,4 10 -
12.03.2019 23:00:00 7,8 1,9 28 15 N 1012,4 10 -
12.03.2019 22:00:00 7,6 1,2 22 12 N 1011,9 10 -
12.03.2019 21:00:00 7,6 2,1 22 12 N 1010,6 10 -
12.03.2019 20:00:00 7,0 0,9 29 16 N 1009,7 10 -

tt = Temperatura
td = dewpoint
ff = velocità del vento
dd = direzione del vento
ppp = reduced air pressure
vv = visibility
sd = ore di luce

Stazioni seguenti

WeatherPro
AMSI
MeteoEarth